Regional Weather Roundup
Issued by NWS Northern Indiana

Home | Current Version | Previous Version | Graphics & Text | Print | Product List | Glossary On
Versions: 1 2 3 4 5 6 7 8 9 10 11 12 13 14 15 16 17 18 19 20 21 22 23 24 25 26 27 28 29 30 31 32 33 34 35 36 37 38 39 40 41 42 43 44 45 46 47 48 49 50
000
ASUS43 KIWX 300000
RWRIWX

KIWX WEATHER ROUNDUP
NATIONAL WEATHER SERVICE NORTHERN INDIANA
800 PM EDT SUN MAR 29 2015

NOTE: "FAIR" INDICATES FEW OR NO CLOUDS BELOW 12,000 FEET WITH NO
SIGNIFICANT WEATHER AND/OR OBSTRUCTIONS TO VISIBILITY.

* THESE STATIONS ARE NOT UNDER NWS QUALITY CONTROL. THEY ALSO MAY NOT
  REPORT WEATHER SUCH AS PRECIPITATION OR FOG.

INZ001>027-300100-
NORTHERN INDIANA

CITY           SKY/WX    TMP DP  RH WIND       PRES   REMARKS
GARY*          CLOUDY    48  30  49 SW13G24   29.78F
SOUTH BEND     CLOUDY    43  30  60 SW21G29   29.81F
6HR MIN TEMP:  38; 6HR MAX TEMP:  43; 6HR PCP: TRACE;

GOSHEN         CLOUDY    41  28  60 SW21G29   29.82F
6HR MIN TEMP:  37; 6HR MAX TEMP:  43; 6HR PCP:  0.01;

ANGOLA*        CLOUDY    39  25  56 SW12      29.84F
FORT WAYNE     CLOUDY    41  28  60 SW18      29.89F
6HR MIN TEMP:  40; 6HR MAX TEMP:  45; 6HR PCP: TRACE;

PERU/GRISSOM   MOCLDY    41  32  71 SW14      29.88S
6HR MIN TEMP:  39; 6HR MAX TEMP:  44; 6HR PCP:  0.02;


$$
INZ028>050-300100-
CENTRAL INDIANA

CITY           SKY/WX    TMP DP  RH WIND       PRES   REMARKS
LAFAYETTE      PTCLDY    43  34  70 SW8       29.90S
6HR MIN TEMP:  38; 6HR MAX TEMP:  45; 6HR PCP:  0.02;

KOKOMO*          N/A     41  30  65 SW14      29.90S
6HR MIN TEMP:  39; 6HR MAX TEMP:  43; 6HR PCP:  0.02;

MUNCIE*        CLOUDY    42  32  67 SW12      29.93R
6HR MIN TEMP:  41; 6HR MAX TEMP:  46; 6HR PCP:  0.08;

INDIANAPOLIS   CLOUDY    43  34  70 SW9       29.93R
6HR MIN TEMP:  43; 6HR MAX TEMP:  51; 6HR PCP:  0.06;


$$
MIZ043>046-050>051-056>058-064>065-071>073-077>080-300100-
SOUTHWEST LOWER MICHIGAN

CITY           SKY/WX    TMP DP  RH WIND       PRES   REMARKS
BATTLE CREEK   CLOUDY    38  26  62 SW20G29   29.77F
6HR MIN TEMP:  36; 6HR MAX TEMP:  45; 6HR PCP: TRACE;

BENTON HARBOR  CLOUDY    41  31  67 S14G25    29.76F
6HR MIN TEMP:  35; 6HR MAX TEMP:  41; 6HR PCP:  0.03;

COLDWATER*     CLOUDY    39  23  53 SW14G23   29.81F
6HR MIN TEMP:  37; 6HR MAX TEMP:  43;

HILLSDALE*     CLOUDY    40  23  51 SW14G21   29.81F
6HR MIN TEMP:  37; 6HR MAX TEMP:  43;

HOLLAND        LGT RAIN  40  32  73 SW29G38   29.73S
6HR MIN TEMP:  34; 6HR MAX TEMP:  42; 6HR PCP:  0.06;

GRAND RAPIDS   LGT RAIN  37  28  70 SW22G29   29.71F
6HR MIN TEMP:  33; 6HR MAX TEMP:  44; 6HR PCP:  0.04;

KALAMAZOO      CLOUDY    39  27  62 S17G25    29.77F
6HR MIN TEMP:  36; 6HR MAX TEMP:  44; 6HR PCP:  0.03;

STURGIS*       CLOUDY    39  27  60 SW15G23   29.81F
THREE RIVERS*  CLOUDY    39  28  63 SW14G21   29.80F
6HR MIN TEMP:  36; 6HR MAX TEMP:  43;


$$
OHZ001>008-015>018-024>025-300100-
NORTHWEST OHIO

CITY           SKY/WX    TMP DP  RH WIND       PRES   REMARKS
DEFIANCE       CLOUDY    41  25  53 S14       29.88F
6HR MIN TEMP:  35; 6HR MAX TEMP:  45;

FINDLAY        LGT RAIN  42  24  49 S22G28    29.90R
6HR MIN TEMP:  42; 6HR MAX TEMP:  47; 6HR PCP: TRACE;

TOLEDO EXPRESS CLOUDY    40  23  50 S13G20    29.88S
6HR MIN TEMP:  40; 6HR MAX TEMP:  45; 6HR PCP:  0.01;

TOLEDO METCALF CLOUDY    42  22  44 S17G28    29.89R
6HR MIN TEMP:  42; 6HR MAX TEMP:  47; 6HR PCP: TRACE;

LIMA           CLOUDY    42  25  50 S15G22    29.91R
6HR MIN TEMP:  42; 6HR MAX TEMP:  46; 6HR PCP: TRACE;


$$
AND FOR LAKE MICHIGAN COASTAL AND OPEN LAKE BUOY OBSERVATIONS

STATION/POSITION TEMP    WIND        PRES    VSBY  WAVE
                 AIR SEA DIR/SP/G                  HT/PER
                 (F)     (DEG/KT/KT) (MB)    (MI)  (FT/S)
CALUMET HARBOR    47     200/ 16/ 21 1006.7F
MICHIGAN CITY     43     180/ 19/ 23   N/A
BURNS HARBOR      45     200/ 18/ 25 1008.8S
SAINT JOSEPH      42     180/ 14     1008.1F

$$
&&


USA.gov is the U.S. government's official web portal to all federal, state and local government web resources and services.